Biloxi, MS

1:09 AM CDT on July 25, 2017 (GMT -0500)
Keesler Air Force Base

Weather History for KBIX - May, 2013

Change the Weather History Date:

Tuesday, May 7, 2013

  Actual Average Record
Temperature  
Mean Temperature 66 °F -  
Max Temperature 75 °F 81 °F 90 °F (1949)
Min Temperature 57 °F 66 °F 47 °F (1992)
Cooling Degree Days 1    
Growing Degree Days 16 (Base 50)    
Moisture  
Dew Point 58 °F    
Average Humidity 73    
Maximum Humidity 93    
Minimum Humidity 52    
Precipitation  
Precipitation 0.00 in - - ()
Sea Level Pressure  
Sea Level Pressure 30.02 in    
Wind  
Wind Speed 4 mph (WSW)    
Max Wind Speed 16 mph    
Max Gust Speed -    
Visibility 10 miles    
Events      
Averages and records for this station are not official NWS values.
T = Trace of Precipitation, MM = Missing Value Source: NWS Daily Summary

Daily Weather History Graph

Daily Weather History Graph

Search for Another Location

Airport or City:

Trip Planner

Search our weather history database for the weather conditions in past years. The results will help you decide how hot, cold, wet, or windy it might be!

Date:

Astronomy

May. 07, 2013 Rise Set
Actual Time 6:06 AM CDT 7:37 PM CDT
Civil Twilight 5:41 AM CDT 8:03 PM CDT
Nautical Twilight 5:10 AM CDT 8:34 PM CDT
Astronomical Twilight 4:37 AM CDT 9:07 PM CDT
Moon 4:32 AM CDT (5/7) 5:44 PM CDT (5/7)
Length of Visible Light 14h 22m
Length of Day
13h 30m
Waning Crescent, 5% of the Moon is Illuminated
May 7
Waning Crescent
May 9
New
May 17
First Quarter
May 24
Full
May 31
Last Quarter

Hourly Weather History & Observations

Time (CDT) Temp. Dew Point Humidity Pressure Visibility Wind Dir Wind Speed Gust Speed Precip Events Conditions
12:58 AM 61.3 °F 54.0 °F 77% 30.00 in 10.0 mi Variable 1.2 mph - N/A   Clear
1:58 AM 61.3 °F 53.8 °F 76% 29.99 in 10.0 mi Variable 2.3 mph - N/A   Clear
2:58 AM 59.2 °F 53.8 °F 82% 29.98 in 10.0 mi Calm Calm - N/A   Clear
3:58 AM 58.8 °F 54.1 °F 84% 29.98 in 10.0 mi Calm Calm - N/A   Clear
4:58 AM 58.6 °F 55.2 °F 88% 30.00 in 10.0 mi NNW 1.2 mph - N/A   Clear
5:58 AM 57.9 °F 54.1 °F 87% 30.02 in 10.0 mi Calm Calm - N/A   Clear
6:58 AM 59.2 °F 55.0 °F 86% 30.03 in 10.0 mi NW 2.3 mph - N/A   Clear
7:58 AM 63.7 °F 55.4 °F 74% 30.05 in 10.0 mi WNW 5.8 mph - N/A   Clear
8:58 AM 67.8 °F 55.9 °F 66% 30.06 in 10.0 mi NNW 5.8 mph - N/A   Clear
9:58 AM 71.1 °F 55.0 °F 57% 30.07 in 10.0 mi North 4.6 mph - N/A   Clear
10:58 AM 72.7 °F 54.0 °F 52% 30.06 in 10.0 mi West 4.6 mph - N/A   Clear
11:58 AM 73.6 °F 55.9 °F 54% 30.05 in 10.0 mi SSW 11.5 mph - N/A   Partly Cloudy
12:58 PM 74.5 °F 55.9 °F 52% 30.04 in 10.0 mi SSW 11.5 mph - N/A   Scattered Clouds
1:58 PM 75.2 °F 58.3 °F 56% 30.02 in 10.0 mi SSW 11.5 mph - N/A   Partly Cloudy
2:58 PM 75.0 °F 58.3 °F 56% 30.01 in 10.0 mi SW 16.1 mph - N/A   Partly Cloudy
3:58 PM 74.5 °F 59.7 °F 60% 30.00 in 10.0 mi SSW 15.0 mph - N/A   Mostly Cloudy
4:58 PM 72.3 °F 59.9 °F 65% 30.00 in 10.0 mi SW 13.8 mph - N/A   Mostly Cloudy
5:58 PM 71.4 °F 61.5 °F 71% 30.00 in 10.0 mi SW 13.8 mph - N/A   Overcast
6:58 PM 70.7 °F 62.6 °F 75% 30.01 in 10.0 mi SW 8.1 mph - N/A   Scattered Clouds
7:58 PM 69.1 °F 63.1 °F 81% 30.02 in 10.0 mi WSW 2.3 mph - N/A   Partly Cloudy
8:58 PM 69.1 °F 64.9 °F 87% 30.03 in 10.0 mi Calm Calm - N/A   Mostly Cloudy
9:58 PM 70.5 °F 65.5 °F 84% 30.05 in 10.0 mi Calm Calm - N/A   Overcast
10:58 PM 67.6 °F 64.6 °F 90% 30.05 in 10.0 mi Calm Calm - N/A   Clear
11:58 PM 67.1 °F 64.9 °F 93% 30.05 in 10.0 mi Calm Calm - N/A   Clear